MMS 1

Last updated on Sat Sep 05 2026 00:02:52 GMT+0000 (Coordinated Universal Time)

1 40482U 15011A 26247.75001156 -.00002064 00000+0 00000+0 0 9993 2 40482 72.9298 347.8272 8260401 169.2033 134.4505 0.28351683 1385
UTC large
Height (km)
Speed (km/s)
/
Latitude / Longitude
Inclination (degrees)
Orbital Period (minutes)
Azimuth
Elevation
Range (km)
Doppler Factor

Next 0 passes for location: London (51.5072 / 0.1276)

No passes found over London.
MMS 1